Flag for Brazil Weather past 2 weeks in Teresina, Piauí, Brazil

Now
84 °F

Clear.


Feels Like: 90 °F
Forecast: 77 / 101 °F
Wind: 5 mph from North

Location: Teresina Aeroporto

Current Time: Sep 17, 2014 at 12:46:15 AM

Latest Report: Sep 17, 2014 at 12:00 AM


Visibility: 10 mi

Pressure: 29.86 "Hg

Humidity: 66%

Dew point: 72 °F

Location of TeresinaLocation

Historic Weather in Teresina — Graph

°F

Teresina temperature yesterday

Maximum temperature yesterday: 100 °F (at 4:00 PM)
Minimum temperature yesterday: 75 °F (at 5:00 AM)
Average temperature yesterday: 87 °F

Past Weeks' High & Low Weather Summary

 TemperatureHumidityPressure
High102 °F (Sep 11, 3:00 PM)94% (Sep 2, 5:00 AM)30.04 "Hg (Sep 2, 5:00 AM)
Low73 °F (Sep 2, 5:00 AM)20% (Sep 11, 3:00 PM)29.71 "Hg (Sep 11, 4:00 PM)
Average88 °F54%29.87 "Hg
* Reported Sep 1 11:00 PM — Sep 16 11:00 PM, Teresina, Weather by CustomWeather, © 2014

Note: Actual official high and low records may vary slightly from our data, if they occured in-between our weather recording intervals... More about our weather records

Advertising

Teresina weather history for previous 24 hours

 ConditionsComfort  
Time TempWeatherWind HumidityBarometerVisibility
11:00 PM
Sep 16
86 °FClear.7 mph55%29.89 "Hg10 mi
10:00 PM86 °FClear.7 mph62%29.86 "Hg10 mi
9:00 PM88 °FClear.No wind55%29.83 "Hg10 mi
8:00 PM91 °FClear.No wind46%29.83 "Hg10 mi
7:00 PM93 °FClear.No wind39%29.80 "Hg10 mi
6:00 PM95 °FClear.No wind34%29.80 "Hg10 mi
5:00 PM99 °FSunny.3 mph31%29.80 "Hg10 mi
4:00 PM100 °FSunny.2 mph27%29.80 "Hg10 mi
3:00 PM99 °FScattered clouds.3 mph31%29.80 "HgN/A
2:00 PM97 °FScattered clouds.3 mph34%29.83 "HgN/A
1:00 PM97 °FScattered clouds.5 mph32%29.86 "HgN/A
12:00 PM95 °FScattered clouds.6 mph36%29.92 "HgN/A
11:00 AM91 °FPassing clouds.6 mph46%29.95 "HgN/A
10:00 AM88 °FPassing clouds.5 mph55%29.95 "HgN/A
9:00 AM84 °FSunny.6 mph66%29.98 "Hg10 mi
8:00 AM81 °FSunny.2 mph74%29.95 "Hg10 mi
7:00 AM77 °FSunny.2 mph89%29.95 "Hg10 mi
6:00 AM75 °FPassing clouds.2 mph89%29.89 "HgN/A
5:00 AM75 °FClear.1 mph94%29.86 "Hg10 mi
4:00 AM77 °FClear.5 mph89%29.86 "Hg10 mi
3:00 AM79 °FClear.3 mph84%29.86 "Hg10 mi
2:00 AM79 °FClear.6 mph84%29.86 "Hg10 mi
1:00 AM81 °FClear.3 mph74%29.86 "Hg10 mi
12:00 AM82 °FClear.6 mph62%29.86 "Hg10 mi
Weather by CustomWeather, © 2014

See weather overviewHow to use our weather pages